loading
|
Showing default

OPS 6026 (DMSP 4A F1), 2418

Orbit data source: Space-Track

OPS 6026 (DMSP 4A F1), 2418 is a payload satellite owned by USAF SSD (US) in SSO that was launched on Fri, 16 Sep 1966 UTC via a THOR BURNER 2 launch vehicle from the Air Force Western Test Range (AFWTR). Payloads include a variety of satellites, spacecraft, and rockets equipped with specific instruments for various scientific and technological missions. These include communications satellites like Starlink; space stations such as the ISS; scientific satellites like the Hubble; Earth observation satellites from companies like Planet Labs, Umbra, and HawkEye 360; GPS; miniature CubeSats for education and research; and military/defense satellites.

Loading next visibility...
Loading greatness...
OPS 6026 (DMSP 4A F1) details
Identifier
2418, 1966-082A
Orbit
SSO
Last TLE update3 hours ago
Origin
Flag of USUSAF SSD (US)
ManufacturerRCA/East Windsor
MissionNon-operational Defense Weather
Bus & MotorDMSP BLOCK 4A, Unknown motor
Mass79 kg wet, 79 kg dry
Launch date (UTC)
1966-09-16 (58 years ago)
Launch vehicle
THOR BURNER 2
Launch site
Air Force Western Test Range (AFWTR)
Object type
Payload
Rocket body
Debris
Shape & HBROct Cyl, 0.8 m
Radar Cross Section0.655 m², Medium (>0.1 m² and < 1m²)

Expand to show TLE details & history

TLE from 3 hours ago
0 OPS 6026 (DMSP 4A F1)
1  2418U 66082A   24278.87677404  .00002825  00000-0  78728-3 0  9995
2  2418  98.2629  76.4034 0117870 103.5792 257.8560 14.43047662 43500
Epoch: 2024-10-04T21:02Z
Definitive object data (Epoch: 2024-10-04T21:02:33.277Z)
Latitude0.00003°
Longitude106.7236°
Altitude770.025 km
Speed7.459 km/s
True Right ascension05h 05m 36s
True Declination0° 00' 00"
Sunlit
Object was in daylight at TLE epoch
Predictive object data (real-time)
Latitude6.01186°
Longitude105.9876°
Altitude760.087 km
Speed7.47 km/s
Apparent Right ascension05h 34m 14s
Apparent Declination-15° 42' 27"
Sunlit
Object is in daylight
Predictive observer data (real-time)
Local Sidereal Time18:20:10
Azimuth25.725° NE
Elevation-63.803°
Doppler factor1
Orbital elements
Apogee829.52 km
Perigee661.586 km
Semi-major axis7,123.69 km
Eccentricity0.011787
Inclination98.2629°
RAAN76.4034°
Arg. of periapsis103.5792°
True anomaly256.53973°
Mean anomaly257.856°
Eccentric anomaly257.19744°
Mean motion3.60982 °/min
BSTAR0.00078728
Period99.73 mins
No data available
No data available
Other satellites on launch #82 in the year 1966 (1966-09-16 UTC)

OPS 6026 (DMSP 4A F1) Visibility forecast

Observer location: 39.9160978°, -105.1181434

OPS 6026 (DMSP 4A F1) is not visible in the next 10 days
Span
Click to sort rows by Start time (UTC) header in descending order
Start Az.
Max El. time (UTC)
Max El. Az.
Max El.
End time (UTC)
End Az.